Time,TemperatureF,DewpointF,PressureIn,WindDirection,WindDirectionDegrees,WindSpeedMPH,WindSpeedGustMPH,Humidity,HourlyPrecipIn,Conditions,Clouds,dailyrainin,SoftwareType,DateUTC
2013-08-08 00:01:00,69.5,68.6,30.01,SSE,148,2.0,8.0,97,0.08,,RA,0.00,VWS V14.01,2013-08-08 04:01:00,
2013-08-08 00:02:00,69.5,68.6,30.00,SSE,148,3.0,8.0,97,0.08,,RA,0.00,VWS V14.01,2013-08-08 04:02:00,
2013-08-08 00:07:00,69.5,68.6,30.00,SE,134,4.0,8.0,97,0.05,,RA,0.00,VWS V14.01,2013-08-08 04:07:00,
2013-08-08 00:12:00,69.3,68.4,30.00,ESE,117,7.0,7.0,97,0.04,,RA,0.00,VWS V14.01,2013-08-08 04:12:00,
2013-08-08 00:17:00,69.2,68.6,30.00,SE,138,0.0,5.0,98,0.02,,RA,0.00,VWS V14.01,2013-08-08 04:17:00,
2013-08-08 00:22:00,69.1,68.5,30.00,ESE,110,0.0,2.0,98,0.02,,RA,0.00,VWS V14.01,2013-08-08 04:22:00,
2013-08-08 00:27:00,69.1,68.5,30.00,South,172,2.0,4.0,98,0.01,,RA,0.00,VWS V14.01,2013-08-08 04:27:00,
2013-08-08 00:32:00,69.1,68.5,30.00,SSE,163,0.0,1.0,98,0.01,,RA,0.00,VWS V14.01,2013-08-08 04:32:00,
2013-08-08 00:37:00,69.0,68.4,30.00,SE,138,1.0,1.0,98,0.00,,-RA,0.00,VWS V14.01,2013-08-08 04:37:00,
2013-08-08 00:42:00,68.9,68.3,30.00,SE,132,0.0,0.0,98,0.00,,-RA,0.00,VWS V14.01,2013-08-08 04:42:00,
2013-08-08 00:47:00,68.8,68.2,30.00,SE,134,0.0,0.0,98,0.00,,-RA,0.00,VWS V14.01,2013-08-08 04:47:00,
2013-08-08 00:52:00,68.7,68.1,30.00,SE,132,0.0,0.0,98,0.00,,-RA,0.00,VWS V14.01,2013-08-08 04:52:00,
2013-08-08 00:57:00,68.7,68.1,30.00,NW,316,0.0,0.0,98,0.00,,-RA,0.00,VWS V14.01,2013-08-08 04:57:00,
2013-08-08 01:02:00,68.6,68.0,30.00,NW,316,0.0,0.0,98,0.00,,-RA,0.00,VWS V14.01,2013-08-08 05:02:00,
2013-08-08 01:07:00,68.6,68.0,30.00,NW,316,0.0,0.0,98,0.00,,,0.00,VWS V14.01,2013-08-08 05:07:00,
2013-08-08 01:12:00,68.6,68.0,30.00,ESE,118,0.0,1.0,98,0.00,,,0.00,VWS V14.01,2013-08-08 05:12:00,
2013-08-08 01:17:00,68.6,68.0,29.99,SE,128,0.0,1.0,98,0.00,,,0.00,VWS V14.01,2013-08-08 05:17:00,
2013-08-08 01:22:00,68.5,68.2,29.99,ESE,121,0.0,0.0,99,0.00,,,0.00,VWS V14.01,2013-08-08 05:22:00,
2013-08-08 01:27:00,68.4,68.1,29.99,ESE,121,0.0,0.0,99,0.00,,,0.00,VWS V14.01,2013-08-08 05:27:00,
2013-08-08 01:32:00,68.4,68.1,29.99,ESE,122,0.0,0.0,99,0.00,,,0.00,VWS V14.01,2013-08-08 05:32:00,
2013-08-08 01:37:00,68.4,68.1,29.99,ESE,121,0.0,0.0,99,0.00,,,0.00,VWS V14.01,2013-08-08 05:37:00,
2013-08-08 01:42:00,68.4,68.1,29.99,ESE,122,0.0,0.0,99,0.00,,,0.00,VWS V14.01,2013-08-08 05:42:00,
2013-08-08 01:47:00,68.4,68.1,29.98,ESE,121,0.0,0.0,99,0.00,,,0.00,VWS V14.01,2013-08-08 05:47:00,
2013-08-08 01:53:00,68.4,68.1,29.98,ESE,121,0.0,0.0,99,0.00,,,0.00,VWS V14.01,2013-08-08 05:53:00,
2013-08-08 01:58:00,68.5,68.2,29.98,ESE,121,0.0,0.0,99,0.00,,,0.00,VWS V14.01,2013-08-08 05:58:00,
2013-08-08 02:03:00,68.6,68.3,29.98,ESE,122,0.0,0.0,99,0.00,,,0.00,VWS V14.01,2013-08-08 06:03:00,
2013-08-08 02:08:00,68.7,68.4,29.98,SE,134,0.0,1.0,99,0.00,,,0.00,VWS V14.01,2013-08-08 06:08:00,
2013-08-08 02:13:00,69.1,69.1,29.98,SSE,167,0.0,2.0,100,0.00,,,0.00,VWS V14.01,2013-08-08 06:13:00,
2013-08-08 02:18:00,69.1,68.8,29.98,SW,219,0.0,0.0,99,0.00,,,0.00,VWS V14.01,2013-08-08 06:18:00,
2013-08-08 02:23:00,69.0,68.7,29.98,SW,218,0.0,0.0,99,0.00,,,0.00,VWS V14.01,2013-08-08 06:23:00,
2013-08-08 02:28:00,69.3,69.3,29.98,SSW,212,0.0,0.0,100,0.00,,,0.00,VWS V14.01,2013-08-08 06:28:00,
2013-08-08 02:33:00,69.7,69.7,29.98,SSE,157,0.0,4.0,100,0.00,,,0.00,VWS V14.01,2013-08-08 06:33:00,
2013-08-08 02:38:00,69.8,69.8,29.98,SW,225,0.0,0.0,100,0.00,,,0.00,VWS V14.01,2013-08-08 06:38:00,
2013-08-08 02:43:00,70.0,70.0,29.98,South,181,2.0,4.0,100,0.00,,,0.00,VWS V14.01,2013-08-08 06:43:00,
2013-08-08 02:48:00,70.0,70.0,29.98,SSE,163,0.0,2.0,100,0.00,,,0.00,VWS V14.01,2013-08-08 06:48:00,
2013-08-08 02:53:00,70.1,70.1,29.97,South,170,1.0,2.0,100,0.00,,,0.00,VWS V14.01,2013-08-08 06:53:00,
2013-08-08 02:58:00,70.0,69.7,29.97,SE,145,0.0,2.0,99,0.00,,,0.00,VWS V14.01,2013-08-08 06:58:00,
2013-08-08 03:03:00,69.9,69.6,29.98,SE,129,1.0,3.0,99,0.00,,,0.00,VWS V14.01,2013-08-08 07:03:00,
2013-08-08 03:08:00,69.9,69.6,29.98,SSE,166,0.0,1.0,99,0.00,,,0.00,VWS V14.01,2013-08-08 07:08:00,
2013-08-08 03:13:00,69.8,69.5,29.97,SE,142,0.0,1.0,99,0.00,,,0.00,VWS V14.01,2013-08-08 07:13:00,
2013-08-08 03:18:00,69.8,69.5,29.97,SSE,149,0.0,0.0,99,0.00,,,0.00,VWS V14.01,2013-08-08 07:18:00,
2013-08-08 03:23:00,69.8,69.5,29.98,SSE,149,0.0,1.0,99,0.00,,,0.00,VWS V14.01,2013-08-08 07:23:00,
2013-08-08 03:28:00,69.7,69.4,29.97,SE,138,0.0,0.0,99,0.00,,,0.00,VWS V14.01,2013-08-08 07:28:00,
2013-08-08 03:33:00,69.8,69.5,29.97,SSE,154,0.0,0.0,99,0.00,,,0.00,VWS V14.01,2013-08-08 07:33:00,
2013-08-08 03:38:00,69.7,69.4,29.97,SSE,153,0.0,0.0,99,0.00,,,0.00,VWS V14.01,2013-08-08 07:38:00,
2013-08-08 03:43:00,69.6,69.3,29.98,SSE,154,0.0,0.0,99,0.00,,,0.00,VWS V14.01,2013-08-08 07:43:00,
2013-08-08 03:48:00,69.5,69.2,29.98,SSE,153,0.0,0.0,99,0.00,,,0.00,VWS V14.01,2013-08-08 07:48:00,
2013-08-08 03:53:00,69.5,69.2,29.98,South,174,0.0,0.0,99,0.00,,,0.00,VWS V14.01,2013-08-08 07:53:00,
2013-08-08 03:58:00,69.6,69.3,29.98,WSW,241,0.0,1.0,99,0.00,,,0.00,VWS V14.01,2013-08-08 07:58:00,
2013-08-08 04:03:00,69.5,69.2,29.98,WSW,242,0.0,0.0,99,0.00,,SCT023,0.00,VWS V14.01,2013-08-08 08:03:00,
2013-08-08 04:08:00,69.5,69.2,29.98,SW,229,0.0,1.0,99,0.00,,SCT023,0.00,VWS V14.01,2013-08-08 08:08:00,
2013-08-08 04:13:00,69.4,69.1,29.98,SSE,166,0.0,1.0,99,0.00,,SCT023,0.00,VWS V14.01,2013-08-08 08:13:00,
2013-08-08 04:18:00,69.3,69.0,29.98,SSE,160,0.0,2.0,99,0.00,,SCT023,0.00,VWS V14.01,2013-08-08 08:18:00,
2013-08-08 04:23:00,69.3,69.0,29.98,SSE,159,0.0,1.0,99,0.00,,SCT023,0.00,VWS V14.01,2013-08-08 08:23:00,
2013-08-08 04:28:00,69.2,68.9,29.98,SSE,167,0.0,2.0,99,0.00,,SCT023,0.00,VWS V14.01,2013-08-08 08:28:00,
2013-08-08 04:33:00,69.3,69.0,29.98,SSE,168,0.0,0.0,99,0.00,,BKN023,0.00,VWS V14.01,2013-08-08 08:33:00,
2013-08-08 04:38:00,69.2,68.9,29.98,SSE,167,0.0,0.0,99,0.00,,BKN023,0.00,VWS V14.01,2013-08-08 08:38:00,
2013-08-08 04:43:00,69.2,68.9,29.97,South,173,0.0,0.0,99,0.00,,BKN023,0.00,VWS V14.01,2013-08-08 08:43:00,
2013-08-08 04:48:00,69.2,68.9,29.97,SE,138,0.0,1.0,99,0.00,,BKN023,0.00,VWS V14.01,2013-08-08 08:48:00,
2013-08-08 04:53:00,69.1,68.8,29.97,SE,138,0.0,0.0,99,0.00,,BKN023,0.00,VWS V14.01,2013-08-08 08:53:00,
2013-08-08 04:58:00,69.0,68.7,29.98,SE,138,0.0,0.0,99,0.00,,BKN023,0.00,VWS V14.01,2013-08-08 08:58:00,
2013-08-08 05:03:00,69.0,68.7,29.98,SE,139,0.0,0.0,99,0.00,,BKN012,0.00,VWS V14.01,2013-08-08 09:03:00,
2013-08-08 05:09:00,68.9,68.6,29.98,SSE,149,0.0,1.0,99,0.00,,BKN012,0.00,VWS V14.01,2013-08-08 09:09:00,
2013-08-08 05:14:00,68.9,68.6,29.98,South,169,0.0,1.0,99,0.00,,BKN012,0.00,VWS V14.01,2013-08-08 09:14:00,
2013-08-08 05:19:00,68.9,68.6,29.98,SSE,166,0.0,0.0,99,0.00,,BKN012,0.00,VWS V14.01,2013-08-08 09:19:00,
2013-08-08 05:24:00,68.8,68.5,29.98,SE,132,0.0,1.0,99,0.00,,BKN012,0.00,VWS V14.01,2013-08-08 09:24:00,
2013-08-08 05:29:00,68.7,68.4,29.98,SE,132,0.0,0.0,99,0.00,,BKN012,0.00,VWS V14.01,2013-08-08 09:29:00,
2013-08-08 05:34:00,68.7,68.4,29.98,SE,132,0.0,0.0,99,0.00,,BKN012,0.00,VWS V14.01,2013-08-08 09:34:00,
2013-08-08 05:39:00,68.6,68.3,29.98,SE,132,0.0,1.0,99,0.00,,BKN012,0.00,VWS V14.01,2013-08-08 09:39:00,
2013-08-08 05:44:00,68.5,68.2,29.98,SE,143,0.0,1.0,99,0.00,,BKN012,0.00,VWS V14.01,2013-08-08 09:44:00,
2013-08-08 05:49:00,68.6,68.3,29.98,SSE,153,0.0,1.0,99,0.00,,BKN012,0.00,VWS V14.01,2013-08-08 09:49:00,
2013-08-08 05:54:00,68.6,68.6,29.98,SSE,162,0.0,1.0,100,0.00,,BKN012,0.00,VWS V14.01,2013-08-08 09:54:00,
2013-08-08 05:59:00,68.7,68.7,29.98,South,171,1.0,4.0,100,0.00,,BKN012,0.00,VWS V14.01,2013-08-08 09:59:00,
2013-08-08 06:04:00,68.8,68.8,29.98,SW,232,0.0,2.0,100,0.00,,,0.00,VWS V14.01,2013-08-08 10:04:00,
2013-08-08 06:09:00,68.9,68.9,29.99,SW,229,0.0,2.0,100,0.00,,,0.00,VWS V14.01,2013-08-08 10:09:00,
2013-08-08 06:14:00,68.9,68.9,29.99,SW,221,0.0,1.0,100,0.00,,,0.00,VWS V14.01,2013-08-08 10:14:00,
2013-08-08 06:19:00,69.0,69.0,29.99,SW,225,0.0,1.0,100,0.00,,,0.00,VWS V14.01,2013-08-08 10:19:00,
2013-08-08 06:24:00,69.0,69.0,29.99,SSW,200,0.0,0.0,100,0.00,,,0.00,VWS V14.01,2013-08-08 10:24:00,
2013-08-08 06:29:00,69.1,69.1,30.00,SSW,193,0.0,3.0,100,0.00,,,0.00,VWS V14.01,2013-08-08 10:29:00,
2013-08-08 06:34:00,69.1,69.1,30.00,South,188,0.0,0.0,100,0.00,,,0.00,VWS V14.01,2013-08-08 10:34:00,
2013-08-08 06:39:00,69.2,68.9,30.00,South,172,0.0,2.0,99,0.00,,,0.00,VWS V14.01,2013-08-08 10:39:00,
2013-08-08 06:44:00,69.2,68.9,30.00,SE,127,1.0,2.0,99,0.00,,,0.00,VWS V14.01,2013-08-08 10:44:00,
2013-08-08 06:49:00,69.2,68.9,30.00,SSE,152,0.0,2.0,99,0.00,,,0.00,VWS V14.01,2013-08-08 10:49:00,
2013-08-08 06:54:00,69.2,68.9,30.00,SSE,148,1.0,3.0,99,0.00,,,0.00,VWS V14.01,2013-08-08 10:54:00,
2013-08-08 06:59:00,69.3,69.0,30.00,SSW,197,1.0,2.0,99,0.00,,,0.00,VWS V14.01,2013-08-08 10:59:00,
2013-08-08 07:04:00,69.3,69.0,30.00,SE,141,1.0,2.0,99,0.00,,,0.00,VWS V14.01,2013-08-08 11:04:00,
2013-08-08 07:09:00,69.3,69.0,30.00,SSE,156,0.0,3.0,99,0.00,,,0.00,VWS V14.01,2013-08-08 11:09:00,
2013-08-08 07:14:00,69.3,69.0,30.00,South,177,0.0,3.0,99,0.00,,,0.00,VWS V14.01,2013-08-08 11:14:00,
2013-08-08 07:19:00,69.4,69.1,30.00,SE,135,1.0,3.0,99,0.00,,,0.00,VWS V14.01,2013-08-08 11:19:00,
2013-08-08 07:24:00,69.5,69.2,30.00,SW,222,0.0,3.0,99,0.00,,,0.00,VWS V14.01,2013-08-08 11:24:00,
2013-08-08 07:29:00,69.6,69.3,30.00,SSE,166,1.0,3.0,99,0.00,,,0.00,VWS V14.01,2013-08-08 11:29:00,
2013-08-08 07:34:00,69.6,69.3,30.00,SSE,165,2.0,3.0,99,0.00,,,0.00,VWS V14.01,2013-08-08 11:34:00,
2013-08-08 07:39:00,69.7,69.4,30.00,South,188,1.0,2.0,99,0.00,,,0.00,VWS V14.01,2013-08-08 11:39:00,
2013-08-08 07:44:00,69.8,69.5,30.00,South,170,2.0,4.0,99,0.00,,,0.00,VWS V14.01,2013-08-08 11:44:00,
2013-08-08 07:49:00,69.9,69.6,30.00,SE,127,1.0,3.0,99,0.00,,,0.00,VWS V14.01,2013-08-08 11:49:00,
2013-08-08 07:54:00,70.0,69.7,30.00,SSE,150,0.0,2.0,99,0.00,,,0.00,VWS V14.01,2013-08-08 11:54:00,
2013-08-08 07:59:00,70.1,69.8,30.00,SE,136,1.0,2.0,99,0.00,,,0.00,VWS V14.01,2013-08-08 11:59:00,
2013-08-08 08:04:00,70.2,69.9,30.00,SSE,153,0.0,3.0,99,0.00,,,0.00,VWS V14.01,2013-08-08 12:04:00,
2013-08-08 08:09:00,70.2,69.9,30.00,SSE,163,1.0,3.0,99,0.00,,,0.00,VWS V14.01,2013-08-08 12:09:00,
2013-08-08 08:14:00,70.2,69.9,30.00,SE,130,2.0,3.0,99,0.00,,,0.00,VWS V14.01,2013-08-08 12:14:00,
2013-08-08 08:19:00,70.3,70.0,30.00,South,176,2.0,5.0,99,0.00,,,0.00,VWS V14.01,2013-08-08 12:19:00,
2013-08-08 08:24:00,70.5,70.2,30.00,SSE,153,2.0,4.0,99,0.00,,,0.00,VWS V14.01,2013-08-08 12:24:00,
2013-08-08 08:29:00,70.5,70.2,30.00,SSE,153,1.0,4.0,99,0.00,,,0.00,VWS V14.01,2013-08-08 12:29:00,
2013-08-08 08:34:00,70.6,70.3,30.01,SSW,208,2.0,4.0,99,0.00,,,0.00,VWS V14.01,2013-08-08 12:34:00,
2013-08-08 08:39:00,70.6,70.3,30.00,SSE,148,0.0,4.0,99,0.00,,,0.00,VWS V14.01,2013-08-08 12:39:00,
2013-08-08 08:44:00,70.7,70.4,30.01,SE,127,0.0,4.0,99,0.00,,,0.00,VWS V14.01,2013-08-08 12:44:00,
2013-08-08 08:49:00,70.8,70.5,30.01,SE,143,0.0,5.0,99,0.00,,,0.00,VWS V14.01,2013-08-08 12:49:00,
2013-08-08 08:54:00,70.8,70.5,30.00,South,184,2.0,2.0,99,0.00,,,0.00,VWS V14.01,2013-08-08 12:54:00,
2013-08-08 08:59:00,70.8,70.5,30.00,SE,131,0.0,3.0,99,0.00,,,0.00,VWS V14.01,2013-08-08 12:59:00,
2013-08-08 09:04:00,70.9,70.6,30.01,ESE,117,0.0,3.0,99,0.00,,,0.00,VWS V14.01,2013-08-08 13:04:00,
2013-08-08 09:09:00,71.0,70.7,30.01,SE,141,1.0,2.0,99,0.00,,,0.00,VWS V14.01,2013-08-08 13:09:00,
2013-08-08 09:14:00,71.0,70.4,30.01,SSE,163,0.0,3.0,98,0.00,,,0.00,VWS V14.01,2013-08-08 13:14:00,
2013-08-08 09:19:00,71.1,70.8,30.01,SSW,195,1.0,3.0,99,0.00,,,0.00,VWS V14.01,2013-08-08 13:19:00,
2013-08-08 09:24:00,71.4,71.1,30.01,SE,139,3.0,3.0,99,0.00,,,0.00,VWS V14.01,2013-08-08 13:24:00,
2013-08-08 09:30:00,71.5,70.9,30.01,SE,145,1.0,3.0,98,0.00,,,0.00,VWS V14.01,2013-08-08 13:30:00,
2013-08-08 09:35:00,71.6,71.0,30.01,ESE,115,0.0,4.0,98,0.00,,,0.00,VWS V14.01,2013-08-08 13:35:00,
2013-08-08 09:40:00,71.8,71.2,30.01,SSE,150,1.0,3.0,98,0.00,,,0.00,VWS V14.01,2013-08-08 13:40:00,
2013-08-08 09:45:00,72.1,71.5,30.00,ESE,118,2.0,3.0,98,0.00,,,0.00,VWS V14.01,2013-08-08 13:45:00,
2013-08-08 09:50:00,72.3,71.7,30.00,ESE,113,1.0,3.0,98,0.00,,,0.00,VWS V14.01,2013-08-08 13:50:00,
2013-08-08 09:55:00,72.6,71.7,30.00,SE,144,0.0,2.0,97,0.00,,,0.00,VWS V14.01,2013-08-08 13:55:00,
2013-08-08 10:00:00,72.9,72.0,30.01,SSE,160,2.0,5.0,97,0.00,,,0.00,VWS V14.01,2013-08-08 14:00:00,
2013-08-08 10:05:00,73.4,72.5,30.00,SE,139,3.0,4.0,97,0.00,,OVC012,0.00,VWS V14.01,2013-08-08 14:05:00,
2013-08-08 10:10:00,73.9,72.7,30.00,SSE,153,0.0,5.0,96,0.00,,OVC012,0.00,VWS V14.01,2013-08-08 14:10:00,
2013-08-08 10:15:00,74.3,72.8,30.00,SE,129,3.0,5.0,95,0.00,,OVC012,0.00,VWS V14.01,2013-08-08 14:15:00,
2013-08-08 10:20:00,74.5,72.7,30.00,SSE,166,2.0,5.0,94,0.00,,OVC012,0.00,VWS V14.01,2013-08-08 14:20:00,
2013-08-08 10:25:00,74.9,72.7,30.00,SSW,197,2.0,4.0,93,0.00,,OVC012,0.00,VWS V14.01,2013-08-08 14:25:00,
2013-08-08 10:30:00,75.4,72.9,30.00,SE,134,2.0,5.0,92,0.00,,OVC012,0.00,VWS V14.01,2013-08-08 14:30:00,
2013-08-08 10:35:00,76.2,74.0,30.00,ESE,121,0.0,5.0,93,0.00,,OVC012,0.00,VWS V14.01,2013-08-08 14:35:00,
2013-08-08 10:40:00,76.7,73.6,30.00,WSW,250,4.0,5.0,90,0.00,,OVC012,0.00,VWS V14.01,2013-08-08 14:40:00,
2013-08-08 10:45:00,76.7,73.6,30.00,SW,218,1.0,6.0,90,0.00,,OVC012,0.00,VWS V14.01,2013-08-08 14:45:00,
2013-08-08 10:50:00,77.1,73.6,29.99,SW,224,2.0,6.0,89,0.00,,OVC012,0.00,VWS V14.01,2013-08-08 14:50:00,
2013-08-08 10:55:00,77.2,73.4,30.00,SSE,149,3.0,8.0,88,0.00,,OVC012,0.00,VWS V14.01,2013-08-08 14:55:00,
2013-08-08 11:00:00,77.5,74.0,29.99,ESE,103,4.0,6.0,89,0.00,,OVC012,0.00,VWS V14.01,2013-08-08 15:00:00,
2013-08-08 11:05:00,77.8,73.6,30.00,West,273,4.0,6.0,87,0.00,,BKN022,0.00,VWS V14.01,2013-08-08 15:05:00,
2013-08-08 11:10:00,78.1,73.9,30.00,SSE,166,1.0,5.0,87,0.00,,BKN022,0.00,VWS V14.01,2013-08-08 15:10:00,
2013-08-08 11:15:00,78.1,73.2,29.99,West,259,3.0,6.0,85,0.00,,BKN022,0.00,VWS V14.01,2013-08-08 15:15:00,
2013-08-08 11:20:00,78.1,73.9,29.99,West,270,0.0,3.0,87,0.00,,BKN022,0.00,VWS V14.01,2013-08-08 15:20:00,
2013-08-08 11:25:00,78.0,73.5,29.99,SW,231,1.0,6.0,86,0.00,,BKN022,0.00,VWS V14.01,2013-08-08 15:25:00,
2013-08-08 11:30:00,78.0,73.8,29.99,SSW,200,3.0,5.0,87,0.00,,BKN022,0.00,VWS V14.01,2013-08-08 15:30:00,
2013-08-08 11:35:00,78.0,74.2,29.99,SW,222,0.0,4.0,88,0.00,,BKN022,0.00,VWS V14.01,2013-08-08 15:35:00,
2013-08-08 11:40:00,78.1,73.9,29.99,WNW,284,0.0,4.0,87,0.00,,BKN022,0.00,VWS V14.01,2013-08-08 15:40:00,
2013-08-08 11:45:00,78.1,73.9,29.99,West,280,2.0,3.0,87,0.00,,BKN022,0.00,VWS V14.01,2013-08-08 15:45:00,
2013-08-08 11:50:00,78.4,74.2,29.98,SSW,212,0.0,2.0,87,0.00,,BKN022,0.00,VWS V14.01,2013-08-08 15:50:00,
2013-08-08 11:55:00,79.7,75.2,29.98,SSE,160,5.0,6.0,86,0.00,,BKN022,0.00,VWS V14.01,2013-08-08 15:55:00,
2013-08-08 12:00:00,80.1,74.5,29.98,SSW,203,2.0,7.0,83,0.00,,BKN022,0.00,VWS V14.01,2013-08-08 16:00:00,
2013-08-08 12:05:00,80.0,74.7,29.98,South,176,4.0,6.0,84,0.00,,BKN100,0.00,VWS V14.01,2013-08-08 16:05:00,
2013-08-08 12:10:00,80.0,74.0,29.98,WSW,254,4.0,5.0,82,0.00,,BKN100,0.00,VWS V14.01,2013-08-08 16:10:00,
2013-08-08 12:15:00,80.1,74.1,29.98,SW,233,4.0,7.0,82,0.00,,BKN100,0.00,VWS V14.01,2013-08-08 16:15:00,
2013-08-08 12:20:00,80.0,74.0,29.98,SW,225,2.0,7.0,82,0.00,,BKN100,0.00,VWS V14.01,2013-08-08 16:20:00,
2013-08-08 12:25:00,79.9,73.9,29.98,SSW,203,2.0,8.0,82,0.00,,BKN100,0.00,VWS V14.01,2013-08-08 16:25:00,
2013-08-08 12:30:00,79.9,74.3,29.98,SSE,166,1.0,8.0,83,0.00,,BKN100,0.00,VWS V14.01,2013-08-08 16:30:00,
2013-08-08 12:35:00,80.3,74.7,29.98,WSW,245,6.0,6.0,83,0.00,,SCT100,0.00,VWS V14.01,2013-08-08 16:35:00,
2013-08-08 12:40:00,80.0,74.4,29.98,West,274,2.0,8.0,83,0.00,,SCT100,0.00,VWS V14.01,2013-08-08 16:40:00,
2013-08-08 12:45:00,79.6,74.0,29.98,West,277,1.0,8.0,83,0.00,,SCT100,0.00,VWS V14.01,2013-08-08 16:45:00,
2013-08-08 12:50:00,79.7,74.4,29.98,West,267,0.0,4.0,84,0.00,,SCT100,0.00,VWS V14.01,2013-08-08 16:50:00,
2013-08-08 12:55:00,80.1,74.5,29.98,SSE,165,1.0,5.0,83,0.00,,SCT100,0.00,VWS V14.01,2013-08-08 16:55:00,
2013-08-08 13:00:00,80.7,74.7,29.98,South,181,1.0,4.0,82,0.00,,SCT100,0.00,VWS V14.01,2013-08-08 17:00:00,
2013-08-08 13:05:00,80.9,74.2,29.98,WSW,240,0.0,5.0,80,0.00,,SCT039,0.00,VWS V14.01,2013-08-08 17:05:00,
2013-08-08 13:10:00,80.9,74.5,29.98,SW,233,1.0,4.0,81,0.00,,SCT039,0.00,VWS V14.01,2013-08-08 17:10:00,
2013-08-08 13:15:00,81.0,75.0,29.98,SSW,205,1.0,2.0,82,0.00,,SCT039,0.00,VWS V14.01,2013-08-08 17:15:00,
2013-08-08 13:20:00,81.3,74.9,29.98,SSW,207,2.0,2.0,81,0.00,,SCT039,0.00,VWS V14.01,2013-08-08 17:20:00,
2013-08-08 13:25:00,81.0,75.0,29.98,West,261,0.0,3.0,82,0.00,,SCT039,0.00,VWS V14.01,2013-08-08 17:25:00,
2013-08-08 13:30:00,80.7,74.7,29.98,West,267,1.0,6.0,82,0.00,,SCT039,0.00,VWS V14.01,2013-08-08 17:30:00,
2013-08-08 13:35:00,80.8,75.5,29.98,SW,214,2.0,6.0,84,0.00,,SCT039,0.00,VWS V14.01,2013-08-08 17:35:00,
2013-08-08 13:40:00,81.4,75.4,29.98,SSE,163,1.0,5.0,82,0.00,,SCT039,0.00,VWS V14.01,2013-08-08 17:40:00,
2013-08-08 13:45:00,82.3,75.1,29.98,SSW,209,2.0,6.0,79,0.00,,SCT039,0.00,VWS V14.01,2013-08-08 17:45:00,
2013-08-08 13:50:00,82.4,74.9,29.98,WSW,245,0.0,7.0,78,0.00,,SCT039,0.00,VWS V14.01,2013-08-08 17:50:00,
2013-08-08 13:55:00,82.5,74.9,29.98,SW,229,2.0,4.0,78,0.00,,SCT039,0.00,VWS V14.01,2013-08-08 17:55:00,
2013-08-08 14:00:00,82.5,75.3,29.98,SW,232,1.0,1.0,79,0.00,,SCT039,0.00,VWS V14.01,2013-08-08 18:00:00,
2013-08-08 14:05:00,82.5,74.6,29.98,SW,229,6.0,8.0,77,0.00,,SCT039,0.00,VWS V14.01,2013-08-08 18:05:00,
2013-08-08 14:10:00,82.3,74.4,29.97,West,268,2.0,4.0,77,0.00,,SCT039,0.00,VWS V14.01,2013-08-08 18:10:00,
2013-08-08 14:15:00,82.2,74.3,29.98,WSW,250,2.0,2.0,77,0.00,,SCT039,0.00,VWS V14.01,2013-08-08 18:15:00,
2013-08-08 14:20:00,81.7,73.8,29.97,WSW,249,3.0,7.0,77,0.00,,SCT039,0.00,VWS V14.01,2013-08-08 18:20:00,
2013-08-08 14:25:00,82.0,74.8,29.97,SW,225,0.0,1.0,79,0.00,,SCT039,0.00,VWS V14.01,2013-08-08 18:25:00,
2013-08-08 14:30:00,82.3,74.8,29.97,South,173,6.0,6.0,78,0.00,,SCT039,0.00,VWS V14.01,2013-08-08 18:30:00,
2013-08-08 14:35:00,82.2,74.3,29.97,SW,226,7.0,9.0,77,0.00,,BKN060,0.00,VWS V14.01,2013-08-08 18:35:00,
2013-08-08 14:40:00,82.1,74.6,29.97,SW,236,3.0,4.0,78,0.00,,BKN060,0.00,VWS V14.01,2013-08-08 18:40:00,
2013-08-08 14:45:00,81.9,74.4,29.97,WSW,253,1.0,4.0,78,0.00,,BKN060,0.00,VWS V14.01,2013-08-08 18:45:00,
2013-08-08 14:50:00,81.5,74.4,29.97,SSE,164,2.0,4.0,79,0.00,,BKN060,0.00,VWS V14.01,2013-08-08 18:50:00,
2013-08-08 14:55:00,81.3,74.9,29.97,SW,235,2.0,2.0,81,0.00,,BKN060,0.00,VWS V14.01,2013-08-08 18:55:00,
2013-08-08 15:00:00,81.0,74.6,29.97,WSW,249,0.0,2.0,81,0.00,,BKN060,0.00,VWS V14.01,2013-08-08 19:00:00,
2013-08-08 15:05:00,81.0,75.3,29.97,WNW,286,0.0,0.0,83,0.00,,BKN060,0.00,VWS V14.01,2013-08-08 19:05:00,
2013-08-08 15:10:00,80.6,75.7,29.96,West,273,0.0,0.0,85,0.01,,BKN060,0.01,VWS V14.01,2013-08-08 19:10:00,
2013-08-08 15:15:00,81.0,75.7,29.96,WSW,250,0.0,1.0,84,0.01,,BKN060,0.01,VWS V14.01,2013-08-08 19:15:00,
2013-08-08 15:20:00,81.8,75.8,29.95,SW,233,2.0,3.0,82,0.01,,BKN060,0.01,VWS V14.01,2013-08-08 19:20:00,
2013-08-08 15:25:00,82.5,76.1,29.95,West,273,1.0,1.0,81,0.01,,BKN060,0.01,VWS V14.01,2013-08-08 19:25:00,
2013-08-08 15:30:00,82.5,75.3,29.96,WSW,240,0.0,3.0,79,0.01,,BKN060,0.01,VWS V14.01,2013-08-08 19:30:00,
2013-08-08 15:35:00,82.0,76.3,29.95,SE,131,6.0,6.0,83,0.01,,-RA,0.01,VWS V14.01,2013-08-08 19:35:00,
2013-08-08 15:40:00,80.6,74.6,29.95,South,173,3.0,4.0,82,0.01,,-RA,0.01,VWS V14.01,2013-08-08 19:40:00,
2013-08-08 15:45:00,80.1,74.8,29.96,South,169,3.0,4.0,84,0.01,,-RA,0.01,VWS V14.01,2013-08-08 19:45:00,
2013-08-08 15:50:00,79.2,73.9,29.95,South,184,3.0,8.0,84,0.01,,-RA,0.01,VWS V14.01,2013-08-08 19:50:00,
2013-08-08 15:55:00,78.3,73.1,29.95,SW,218,2.0,6.0,84,0.01,,-RA,0.01,VWS V14.01,2013-08-08 19:55:00,
2013-08-08 16:01:00,77.6,72.7,29.96,SSW,198,4.0,11.0,85,0.01,,-RA,0.01,VWS V14.01,2013-08-08 20:01:00,
2013-08-08 16:06:00,75.9,71.8,29.96,SSE,167,4.0,8.0,87,0.15,,BKN065,0.15,VWS V14.01,2013-08-08 20:06:00,
2013-08-08 16:11:00,74.1,71.0,29.95,SSE,163,5.0,9.0,90,0.15,,BKN065,0.16,VWS V14.01,2013-08-08 20:11:00,
2013-08-08 16:16:00,73.4,70.9,29.95,SSE,148,4.0,7.0,92,0.22,,BKN065,0.23,VWS V14.01,2013-08-08 20:16:00,
2013-08-08 16:21:00,73.3,71.2,29.95,SSE,162,1.0,5.0,93,0.23,,BKN065,0.24,VWS V14.01,2013-08-08 20:21:00,
2013-08-08 16:26:00,73.6,71.5,29.95,SSE,165,1.0,3.0,93,0.23,,BKN065,0.24,VWS V14.01,2013-08-08 20:26:00,
2013-08-08 16:31:00,74.3,71.8,29.95,SSE,162,3.0,5.0,92,0.23,,BKN065,0.24,VWS V14.01,2013-08-08 20:31:00,
2013-08-08 16:36:00,74.8,72.3,29.94,South,172,4.0,5.0,92,0.23,,BKN100,0.24,VWS V14.01,2013-08-08 20:36:00,
2013-08-08 16:41:00,75.4,72.9,29.94,SSE,158,2.0,5.0,92,0.23,,BKN100,0.24,VWS V14.01,2013-08-08 20:41:00,
2013-08-08 16:46:00,76.2,73.7,29.94,SSW,194,1.0,3.0,92,0.23,,BKN100,0.24,VWS V14.01,2013-08-08 20:46:00,
2013-08-08 16:51:00,77.5,74.3,29.94,SSE,165,2.0,5.0,90,0.23,,BKN100,0.24,VWS V14.01,2013-08-08 20:51:00,
2013-08-08 16:56:00,78.4,74.2,29.94,South,176,1.0,4.0,87,0.23,,BKN100,0.24,VWS V14.01,2013-08-08 20:56:00,
2013-08-08 17:01:00,79.0,74.8,29.94,WSW,250,1.0,4.0,87,0.23,,BKN100,0.24,VWS V14.01,2013-08-08 21:01:00,
2013-08-08 17:07:00,79.5,75.3,29.94,West,269,3.0,4.0,87,0.11,,OVC075,0.24,VWS V14.01,2013-08-08 21:07:00,
2013-08-08 17:12:00,79.6,75.1,29.94,SE,132,1.0,6.0,86,0.08,,OVC075,0.24,VWS V14.01,2013-08-08 21:12:00,
2013-08-08 17:17:00,79.4,75.2,29.94,South,188,2.0,5.0,87,0.04,,OVC075,0.24,VWS V14.01,2013-08-08 21:17:00,
2013-08-08 17:22:00,79.2,75.0,29.94,South,179,1.0,6.0,87,0.00,,OVC075,0.24,VWS V14.01,2013-08-08 21:22:00,
2013-08-08 17:27:00,79.3,75.4,29.94,SE,124,4.0,5.0,88,0.00,,OVC075,0.24,VWS V14.01,2013-08-08 21:27:00,
2013-08-08 17:32:00,79.4,75.5,29.94,South,172,2.0,7.0,88,0.00,,OVC075,0.24,VWS V14.01,2013-08-08 21:32:00,
2013-08-08 17:38:00,79.1,75.2,29.94,SSE,155,6.0,6.0,88,0.00,,OVC075,0.24,VWS V14.01,2013-08-08 21:38:00,
2013-08-08 17:43:00,78.6,74.8,29.94,SSE,155,5.0,8.0,88,0.00,,OVC075,0.24,VWS V14.01,2013-08-08 21:43:00,
2013-08-08 17:48:00,78.3,74.5,29.94,SE,137,2.0,7.0,88,0.00,,OVC075,0.24,VWS V14.01,2013-08-08 21:48:00,
2013-08-08 17:54:00,78.0,74.5,29.94,SSE,162,2.0,6.0,89,0.00,,OVC075,0.24,VWS V14.01,2013-08-08 21:54:00,
2013-08-08 18:00:00,77.6,74.1,29.94,South,177,4.0,10.0,89,0.00,,OVC075,0.24,VWS V14.01,2013-08-08 22:00:00,
2013-08-08 18:05:00,77.4,73.9,29.94,SE,142,1.0,4.0,89,0.00,,CLR,0.24,VWS V14.01,2013-08-08 22:05:00,
2013-08-08 18:10:00,77.2,73.7,29.94,ESE,105,3.0,4.0,89,0.00,,CLR,0.24,VWS V14.01,2013-08-08 22:10:00,
2013-08-08 18:15:00,77.0,73.5,29.94,SE,136,6.0,7.0,89,0.00,,CLR,0.24,VWS V14.01,2013-08-08 22:15:00,
2013-08-08 18:20:00,76.9,73.4,29.94,South,179,5.0,8.0,89,0.00,,CLR,0.24,VWS V14.01,2013-08-08 22:20:00,
2013-08-08 18:26:00,76.8,73.0,29.94,SE,143,4.0,7.0,88,0.00,,CLR,0.24,VWS V14.01,2013-08-08 22:26:00,
2013-08-08 18:31:00,76.7,72.9,29.94,SE,131,3.0,6.0,88,0.00,,CLR,0.24,VWS V14.01,2013-08-08 22:31:00,
2013-08-08 18:36:00,76.6,73.1,29.94,SE,129,4.0,5.0,89,0.00,,CLR,0.24,VWS V14.01,2013-08-08 22:36:00,
2013-08-08 18:41:00,76.5,73.3,29.94,SE,125,4.0,7.0,90,0.00,,CLR,0.24,VWS V14.01,2013-08-08 22:41:00,
2013-08-08 18:47:00,76.5,73.3,29.94,SE,145,3.0,5.0,90,0.00,,CLR,0.24,VWS V14.01,2013-08-08 22:47:00,
2013-08-08 18:52:00,76.4,73.6,29.94,SSE,148,2.0,7.0,91,0.00,,CLR,0.24,VWS V14.01,2013-08-08 22:52:00,
2013-08-08 18:57:00,76.4,73.6,29.95,SSE,159,3.0,6.0,91,0.00,,CLR,0.24,VWS V14.01,2013-08-08 22:57:00,
2013-08-08 19:02:00,76.4,73.6,29.94,SE,127,1.0,5.0,91,0.00,,CLR,0.24,VWS V14.01,2013-08-08 23:02:00,
2013-08-08 19:07:00,76.2,73.7,29.94,SE,139,4.0,7.0,92,0.00,,BKN080,0.24,VWS V14.01,2013-08-08 23:07:00,
2013-08-08 19:12:00,76.2,73.7,29.94,SE,139,1.0,5.0,92,0.00,,BKN080,0.24,VWS V14.01,2013-08-08 23:12:00,
2013-08-08 19:17:00,76.1,73.9,29.94,SE,143,1.0,7.0,93,0.00,,BKN080,0.24,VWS V14.01,2013-08-08 23:17:00,
2013-08-08 19:23:00,76.1,73.9,29.94,ESE,120,2.0,7.0,93,0.00,,BKN080,0.24,VWS V14.01,2013-08-08 23:23:00,
2013-08-08 19:28:00,76.1,73.9,29.94,ESE,123,4.0,7.0,93,0.00,,BKN080,0.24,VWS V14.01,2013-08-08 23:28:00,
2013-08-08 19:33:00,76.1,73.9,29.95,SSE,155,3.0,8.0,93,0.00,,BKN080,0.24,VWS V14.01,2013-08-08 23:33:00,
2013-08-08 19:38:00,76.1,73.9,29.95,South,190,5.0,6.0,93,0.00,,BKN080,0.24,VWS V14.01,2013-08-08 23:38:00,
2013-08-08 19:43:00,76.0,74.2,29.95,SE,143,2.0,7.0,94,0.00,,BKN080,0.24,VWS V14.01,2013-08-08 23:43:00,
2013-08-08 19:48:00,76.0,74.2,29.95,ESE,119,4.0,8.0,94,0.00,,BKN080,0.24,VWS V14.01,2013-08-08 23:48:00,
2013-08-08 19:53:00,76.0,74.2,29.95,SE,134,5.0,7.0,94,0.00,,BKN080,0.24,VWS V14.01,2013-08-08 23:53:00,
2013-08-08 19:58:00,76.0,74.2,29.95,SSW,194,4.0,9.0,94,0.00,,BKN080,0.24,VWS V14.01,2013-08-08 23:58:00,
2013-08-08 20:03:00,76.2,74.0,29.94,SSE,162,5.0,14.0,93,0.00,,OVC055,0.24,VWS V14.01,2013-08-09 00:03:00,
2013-08-08 20:09:00,76.3,73.8,29.95,WNW,300,3.0,10.0,92,0.00,,OVC055,0.24,VWS V14.01,2013-08-09 00:09:00,
2013-08-08 20:14:00,76.3,72.8,29.95,WSW,249,10.0,19.0,89,0.00,,OVC055,0.24,VWS V14.01,2013-08-09 00:14:00,
2013-08-08 20:19:00,75.9,72.4,29.96,ESE,114,3.0,15.0,89,0.00,,OVC055,0.24,VWS V14.01,2013-08-09 00:19:00,
2013-08-08 20:25:00,75.3,71.8,29.96,SW,232,9.0,10.0,89,0.00,,OVC055,0.24,VWS V14.01,2013-08-09 00:25:00,
2013-08-08 20:30:00,74.6,71.8,29.95,SSW,194,1.0,10.0,91,0.02,,OVC055,0.26,VWS V14.01,2013-08-09 00:30:00,
2013-08-08 20:35:00,74.0,71.8,29.95,SSW,197,1.0,1.0,93,0.03,,OVC055,0.27,VWS V14.01,2013-08-09 00:35:00,
2013-08-08 20:40:00,73.6,71.8,29.96,SE,138,3.0,3.0,94,0.03,,OVC055,0.27,VWS V14.01,2013-08-09 00:40:00,
2013-08-08 20:45:00,73.2,71.7,29.96,SW,228,0.0,1.0,95,0.03,,OVC055,0.27,VWS V14.01,2013-08-09 00:45:00,
2013-08-08 20:50:00,72.9,71.4,29.96,SSW,211,2.0,3.0,95,0.04,,OVC055,0.28,VWS V14.01,2013-08-09 00:50:00,
2013-08-08 20:55:00,72.8,71.6,29.97,SSE,150,0.0,0.0,96,0.04,,OVC055,0.28,VWS V14.01,2013-08-09 00:55:00,
2013-08-08 21:00:00,72.6,71.4,29.97,SE,142,1.0,3.0,96,0.04,,OVC055,0.28,VWS V14.01,2013-08-09 01:00:00,
2013-08-08 21:05:00,72.4,71.2,29.97,SSE,158,2.0,3.0,96,0.05,,-RA,0.29,VWS V14.01,2013-08-09 01:05:00,
2013-08-08 21:10:00,72.3,71.1,29.97,SSE,164,1.0,4.0,96,0.05,,-RA,0.29,VWS V14.01,2013-08-09 01:10:00,
2013-08-08 21:15:00,72.2,71.0,29.97,SE,134,3.0,6.0,96,0.05,,-RA,0.29,VWS V14.01,2013-08-09 01:15:00,
2013-08-08 21:21:00,72.1,70.9,29.98,SE,137,2.0,3.0,96,0.05,,-RA,0.29,VWS V14.01,2013-08-09 01:21:00,
2013-08-08 21:26:00,72.2,71.3,29.98,SSE,159,3.0,5.0,97,0.05,,-RA,0.29,VWS V14.01,2013-08-09 01:26:00,
2013-08-08 21:31:00,72.2,71.3,29.98,SSE,162,2.0,4.0,97,0.03,,-RA,0.29,VWS V14.01,2013-08-09 01:31:00,
2013-08-08 21:36:00,72.1,71.2,29.97,SE,139,2.0,6.0,97,0.02,,-RA,0.29,VWS V14.01,2013-08-09 01:36:00,
2013-08-08 21:41:00,72.1,71.2,29.97,SE,139,2.0,3.0,97,0.02,,-RA,0.29,VWS V14.01,2013-08-09 01:41:00,
2013-08-08 21:46:00,72.1,71.2,29.97,SE,125,2.0,4.0,97,0.02,,-RA,0.29,VWS V14.01,2013-08-09 01:46:00,
2013-08-08 21:51:00,72.1,71.2,29.97,SE,138,2.0,5.0,97,0.01,,-RA,0.29,VWS V14.01,2013-08-09 01:51:00,
2013-08-08 21:56:00,72.2,71.3,29.97,SSE,164,3.0,6.0,97,0.01,,-RA,0.29,VWS V14.01,2013-08-09 01:56:00,
2013-08-08 22:01:00,72.2,71.3,29.97,SSE,149,3.0,8.0,97,0.01,,-RA,0.29,VWS V14.01,2013-08-09 02:01:00,
2013-08-08 22:06:00,72.2,71.3,29.97,SE,132,3.0,8.0,97,0.00,,BKN050,0.29,VWS V14.01,2013-08-09 02:06:00,
2013-08-08 22:11:00,72.2,71.3,29.97,SSE,157,2.0,6.0,97,0.00,,BKN050,0.29,VWS V14.01,2013-08-09 02:11:00,
2013-08-08 22:16:00,72.2,71.3,29.97,SSE,148,3.0,7.0,97,0.00,,BKN050,0.29,VWS V14.01,2013-08-09 02:16:00,
2013-08-08 22:22:00,72.3,71.4,29.97,SSE,158,5.0,5.0,97,0.00,,BKN050,0.29,VWS V14.01,2013-08-09 02:22:00,
2013-08-08 22:27:00,72.3,71.7,29.96,SE,146,3.0,5.0,98,0.00,,BKN050,0.29,VWS V14.01,2013-08-09 02:27:00,
2013-08-08 22:33:00,72.3,71.7,29.96,SSE,153,7.0,7.0,98,0.00,,BKN050,0.29,VWS V14.01,2013-08-09 02:33:00,
2013-08-08 22:38:00,72.4,71.8,29.96,SSE,153,4.0,7.0,98,0.00,,BKN050,0.29,VWS V14.01,2013-08-09 02:38:00,
2013-08-08 22:43:00,72.6,72.0,29.96,SE,139,6.0,9.0,98,0.00,,BKN050,0.29,VWS V14.01,2013-08-09 02:43:00,
2013-08-08 22:48:00,72.7,72.1,29.96,SSE,163,5.0,8.0,98,0.00,,BKN050,0.29,VWS V14.01,2013-08-09 02:48:00,
2013-08-08 22:53:00,72.8,72.2,29.96,SSE,166,3.0,8.0,98,0.00,,BKN050,0.29,VWS V14.01,2013-08-09 02:53:00,
2013-08-08 22:58:00,72.9,72.3,29.96,SE,137,4.0,12.0,98,0.01,,BKN050,0.30,VWS V14.01,2013-08-09 02:58:00,
2013-08-08 23:03:00,72.9,72.3,29.95,SE,127,6.0,8.0,98,0.01,,-RA,0.30,VWS V14.01,2013-08-09 03:03:00,
2013-08-08 23:08:00,72.9,72.3,29.95,ESE,122,5.0,9.0,98,0.01,,-RA,0.30,VWS V14.01,2013-08-09 03:08:00,
2013-08-08 23:13:00,72.9,72.3,29.95,SE,145,3.0,11.0,98,0.01,,-RA,0.30,VWS V14.01,2013-08-09 03:13:00,
2013-08-08 23:19:00,72.9,72.3,29.95,SE,130,8.0,11.0,98,0.01,,-RA,0.30,VWS V14.01,2013-08-09 03:19:00,
2013-08-08 23:24:00,72.9,72.3,29.95,SE,128,4.0,11.0,98,0.01,,-RA,0.30,VWS V14.01,2013-08-09 03:24:00,
2013-08-08 23:29:00,72.8,72.2,29.95,SSE,152,8.0,13.0,98,0.01,,-RA,0.30,VWS V14.01,2013-08-09 03:29:00,
2013-08-08 23:35:00,72.9,72.3,29.94,SSE,150,8.0,9.0,98,0.01,,-RA,0.30,VWS V14.01,2013-08-09 03:35:00,
2013-08-08 23:40:00,72.9,72.3,29.94,SSW,193,9.0,9.0,98,0.01,,-RA,0.30,VWS V14.01,2013-08-09 03:40:00,
2013-08-08 23:45:00,72.9,72.3,29.94,SSE,159,6.0,7.0,98,0.01,,-RA,0.30,VWS V14.01,2013-08-09 03:45:00,
2013-08-08 23:50:00,72.9,72.3,29.94,SSW,193,4.0,4.0,98,0.01,,-RA,0.30,VWS V14.01,2013-08-09 03:50:00,
2013-08-08 23:55:00,73.0,72.4,29.94,SSE,163,3.0,4.0,98,0.01,,-RA,0.30,VWS V14.01,2013-08-09 03:55:00,